Location: American Medical Response
(33.3472°N, 96.5511°W)
Time: 07:33:23
(UTC+00:00)

Cosmos 1602 - Pass Details

Date: 08 December 2021
Orbit: 512 x 530 km, 82.5° (Epoch: 25 January)

Event Time Altitude Azimuth Distance (km) Brightness Sun altitude
Rises 12:44:22 0° 205° (SSW) 2,609 7.3 -7.2°
Reaches altitude 10° 12:46:38 10° 215° (SW) 1,727 6.2 -6.7°
Maximum altitude 12:50:03 32° 280° (W) 895 4.4 -6.1°
Drops below altitude 10° 12:53:30 10° 345° (NNW) 1,739 6.0 -5.4°
Sets 12:55:48 0° 355° (N) 2,631 7.0 -5.0°
